EZY96CP EGGW-EHAM

Flight info

Callsign EZY96CP
Flight time N/A
Altitude 25000
Route MATCH Q295 BRAIN M197 REDFA
Aircraft A320/M-SDE3FGHIRWY/LB1

Departure

Time 2026-05-04 22:18
Airport London Luton Airport (EGGW)

Arrival

Time N/A
Airport Amsterdam Airport Schiphol (EHAM)
Time Latitude Longitude Altitude Speed Heading
2026-05-04 21:56 51.87823 -0.37783 524 ft 0 kts 25°
2026-05-04 22:08 51.87815 -0.37789 523 ft 2 kts
2026-05-04 22:08 51.87798 -0.37792 523 ft 2 kts 22°
2026-05-04 22:09 51.87784 -0.37804 523 ft 2 kts 52°
2026-05-04 22:09 51.87777 -0.37828 523 ft 2 kts 99°
2026-05-04 22:09 51.87780 -0.37847 523 ft 1 kts 113°
2026-05-04 22:09 51.87780 -0.37849 523 ft 0 kts 114°
2026-05-04 22:12 51.87778 -0.37840 523 ft 4 kts 114°
2026-05-04 22:13 51.87751 -0.37747 523 ft 11 kts 115°
2026-05-04 22:13 51.87715 -0.37623 518 ft 14 kts 115°
2026-05-04 22:13 51.87673 -0.37508 521 ft 10 kts 135°
2026-05-04 22:13 51.87623 -0.37466 523 ft 8 kts 165°
2026-05-04 22:14 51.87546 -0.37470 521 ft 15 kts 199°
2026-05-04 22:14 51.87492 -0.37604 523 ft 14 kts 255°
2026-05-04 22:14 51.87467 -0.37754 523 ft 14 kts 254°
2026-05-04 22:14 51.87440 -0.37908 523 ft 14 kts 254°
2026-05-04 22:15 51.87392 -0.38046 523 ft 15 kts 215°
2026-05-04 22:15 51.87311 -0.38109 522 ft 7 kts 197°
2026-05-04 22:15 51.87271 -0.38109 523 ft 5 kts 176°
2026-05-04 22:15 51.87263 -0.38108 523 ft 0 kts 174°
2026-05-04 22:16 51.87254 -0.38097 523 ft 1 kts 137°
2026-05-04 22:16 51.87254 -0.38039 524 ft 0 kts 76°
2026-05-04 22:17 51.87276 -0.37915 524 ft 45 kts 74°
2026-05-04 22:17 51.87438 -0.36988 523 ft 119 kts 75°
2026-05-04 22:17 51.87719 -0.35345 631 ft 165 kts 73°
2026-05-04 22:18 51.88023 -0.33575 1371 ft 165 kts 75°
2026-05-04 22:18 51.88333 -0.31747 1984 ft 175 kts 74°
2026-05-04 22:18 51.88671 -0.29726 2312 ft 196 kts 75°
2026-05-04 22:18 51.89046 -0.27438 2639 ft 220 kts 75°
2026-05-04 22:19 51.89460 -0.24927 3066 ft 242 kts 78°
2026-05-04 22:19 51.89352 -0.22124 3503 ft 262 kts 115°
2026-05-04 22:19 51.88180 -0.19874 4243 ft 268 kts 148°
2026-05-04 22:19 51.86529 -0.18403 5004 ft 275 kts 156°
2026-05-04 22:20 51.84703 -0.17160 6046 ft 273 kts 160°
2026-05-04 22:20 51.82908 -0.16096 6927 ft 276 kts 161°
2026-05-04 22:20 51.81100 -0.14990 7747 ft 280 kts 159°
2026-05-04 22:20 51.79296 -0.13775 8644 ft 282 kts 158°
2026-05-04 22:21 51.77479 -0.12503 9460 ft 287 kts 154°
2026-05-04 22:21 51.75963 -0.10359 10255 ft 293 kts 122°
2026-05-04 22:21 51.75300 -0.07298 10946 ft 299 kts 95°
2026-05-04 22:21 51.75446 -0.03875 11339 ft 318 kts 82°
2026-05-04 22:22 51.75765 -0.00213 11552 ft 341 kts 82°
2026-05-04 22:22 51.76118 0.03452 12256 ft 343 kts 81°
2026-05-04 22:22 51.76500 0.07251 13068 ft 343 kts 81°
2026-05-04 22:22 51.76881 0.11060 13889 ft 344 kts 81°
2026-05-04 22:23 51.77231 0.14896 14499 ft 348 kts 82°
2026-05-04 22:23 51.77531 0.18807 15120 ft 351 kts 83°
2026-05-04 22:23 51.77808 0.22754 15719 ft 356 kts 84°
2026-05-04 22:23 51.78089 0.26741 16351 ft 359 kts 84°
2026-05-04 22:24 51.78388 0.30779 16948 ft 363 kts 83°
2026-05-04 22:24 51.78697 0.34845 17569 ft 366 kts 84°
2026-05-04 22:24 51.79014 0.38931 18218 ft 368 kts 83°
2026-05-04 22:24 51.79341 0.43055 18746 ft 372 kts 84°
2026-05-04 22:25 51.79681 0.47228 19213 ft 377 kts 83°
2026-05-04 22:25 51.80027 0.51428 19697 ft 381 kts 83°
2026-05-04 22:25 51.80378 0.55700 20212 ft 384 kts 84°
2026-05-04 22:25 51.80730 0.59996 20737 ft 387 kts 84°
2026-05-04 22:26 51.81078 0.64325 21214 ft 391 kts 82°
2026-05-04 22:26 51.81656 0.68642 21667 ft 395 kts 77°
2026-05-04 22:26 51.82315 0.72995 22149 ft 398 kts 77°
2026-05-04 22:26 51.82979 0.77349 22632 ft 401 kts 77°
2026-05-04 22:27 51.83655 0.81744 23116 ft 404 kts 77°
2026-05-04 22:27 51.84386 0.86147 23580 ft 408 kts 75°
2026-05-04 22:27 51.85184 0.90564 23970 ft 411 kts 74°
2026-05-04 22:27 51.86025 0.95027 24343 ft 414 kts 74°
2026-05-04 22:28 51.86874 0.99487 24723 ft 416 kts 73°
2026-05-04 22:28 51.87721 1.03988 24989 ft 418 kts 74°
2026-05-04 22:28 51.88548 1.08453 25050 ft 408 kts 74°
2026-05-04 22:28 51.89343 1.12819 25056 ft 400 kts 75°
2026-05-04 22:29 51.90116 1.17133 25056 ft 397 kts 75°
2026-05-04 22:29 51.90881 1.21430 25055 ft 396 kts 75°
2026-05-04 22:29 51.91385 1.24264 25055 ft 396 kts 75°
2026-05-04 22:29 51.92394 1.29949 25055 ft 396 kts 75°
2026-05-04 22:30 51.93154 1.34228 25055 ft 396 kts 75°
2026-05-04 22:30 51.93917 1.38521 25052 ft 396 kts 75°
2026-05-04 22:30 51.94429 1.41416 25053 ft 396 kts 75°
2026-05-04 22:30 51.95193 1.45725 25052 ft 396 kts 75°
2026-05-04 22:31 51.95956 1.50024 25039 ft 396 kts 75°
2026-05-04 22:31 51.96711 1.54301 25038 ft 396 kts 75°
2026-05-04 22:31 51.97470 1.58617 25035 ft 397 kts 75°
2026-05-04 22:31 51.98222 1.62923 25035 ft 397 kts 75°
2026-05-04 22:32 51.98971 1.67224 25034 ft 397 kts 75°
2026-05-04 22:32 51.99704 1.71545 25033 ft 397 kts 76°
2026-05-04 22:32 52.00400 1.75893 25035 ft 397 kts 76°
2026-05-04 22:32 52.01069 1.80233 25031 ft 397 kts 77°
2026-05-04 22:33 52.01729 1.84591 25033 ft 397 kts 77°
2026-05-04 22:33 52.02387 1.88939 25033 ft 397 kts 77°
2026-05-04 22:33 52.03048 1.93286 25037 ft 397 kts 76°
2026-05-04 22:33 52.03712 1.97627 25025 ft 397 kts 76°
2026-05-04 22:34 52.04381 2.01983 25023 ft 398 kts 76°
2026-05-04 22:34 52.05052 2.06345 25023 ft 398 kts 76°
2026-05-04 22:34 52.05722 2.10709 25023 ft 398 kts 76°
2026-05-04 22:34 52.06390 2.15083 25024 ft 398 kts 76°
2026-05-04 22:35 52.07052 2.19461 25022 ft 399 kts 76°
2026-05-04 22:35 52.07714 2.23840 25024 ft 399 kts 76°
2026-05-04 22:35 52.08376 2.28217 25026 ft 399 kts 76°
2026-05-04 22:35 52.08879 2.31558 24858 ft 393 kts 76°
2026-05-04 22:36 52.09521 2.35833 24531 ft 386 kts 76°
2026-05-04 22:36 52.10158 2.40063 24057 ft 384 kts 76°
2026-05-04 22:36 52.10793 2.44280 23588 ft 383 kts 76°
2026-05-04 22:36 52.11541 2.48424 23032 ft 381 kts 67°
2026-05-04 22:37 52.12724 2.52238 22680 ft 373 kts 58°
2026-05-04 22:37 52.14036 2.55834 22359 ft 367 kts 58°
2026-05-04 22:37 52.15326 2.59396 22028 ft 364 kts 58°
2026-05-04 22:37 52.16607 2.62940 21708 ft 362 kts 58°
2026-05-04 22:38 52.17876 2.66459 21380 ft 360 kts 58°
2026-05-04 22:38 52.19155 2.70008 21060 ft 358 kts 58°
2026-05-04 22:38 52.20397 2.73449 20742 ft 356 kts 58°
2026-05-04 22:38 52.21653 2.76930 20423 ft 354 kts 58°
2026-05-04 22:39 52.22896 2.80388 20119 ft 352 kts 58°